Zurück zum Katalog

OPS 4682 DEB

AktivPO
NORAD 38363·DEBRIS·🇺🇸 United States

Gestartet Apr 3, 1965 von Vandenberg Space Force Base

Loading…

Nächste Überflüge (nächste 24 Stunden)

TLE

AktuellSource: Space-Track

Epoche: Sep 14, 2026, 06:33 UTC

1 38363U 65027BQ  26257.27305696 -.00000621  00000-0 -20472-2 0  9991
2 38363  90.2491  11.6002 0027533 329.5341  30.4181 13.01323137563743

Verfolge OPS 4682 DEB in Echtzeit mit AllMySat

Download on the App Store